Weather History for Huron, SD

Change the Weather History Date:

Friday, February 28, 2014

  Actual Average Record
Temperature  
Mean Temperature 13 °F 26 °F  
Max Temperature 21 °F 36 °F 63 °F (1905)
Min Temperature 5 °F 16 °F -39 °F (1962)
Degree Days  
Heating Degree Days 52 39  
Month to date heating degree days 1443 1215  
Since 1 July heating degree days 6320 5832  
Cooling Degree Days 0 0  
Month to date cooling degree days 0 0  
Year to date cooling degree days 0 0  
Moisture  
Dew Point 3 °F    
Average Humidity 65    
Maximum Humidity 74    
Minimum Humidity 56    
Precipitation  
Precipitation 0.02 in 0.03 in 1.20 in (1930)
Month to date precipitation 0.42 0.60  
Year to date precipitation 0.57 1.10  
Snow  
Snow 0.20 in 0.30 in 10.10 in (2007)
Month to date snowfall 5.8 7.4  
Since 1 July snowfall 21.8 31.0  
Snow Depth 1.00 in    
Sea Level Pressure  
Sea Level Pressure 29.99 in    
Wind  
Wind Speed 18 mph (NW)    
Max Wind Speed 31 mph    
Max Gust Speed 38 mph    
Visibility 9 miles    
Events Snow    
T = Trace of Precipitation, MM = Missing Value Source: NWS Daily Summary

Daily Weather History Graph

Daily Weather History Graph

Search for Another Location

Airport:

Trip Planner

Search our weather history database for the weather conditions in past years. The results will help you decide how hot, cold, wet, or windy it might be!

Date:

Astronomy

Feb. 28, 2014 Rise Set
Actual Time 7:11 AM CST 6:19 PM CST
Civil Twilight 6:42 AM CST 6:48 PM CST
Nautical Twilight 6:09 AM CST 7:22 PM CST
Astronomical Twilight 5:35 AM CST 7:56 PM CST
Moon 6:27 AM CST (2/28) 5:59 PM CST (2/28)
Length of Visible Light 12h 06m
Length of Day
11h 07m
Waning Crescent, 1% of the Moon is Illuminated
Feb 28
Waning Crescent
Mar 1
New
Mar 8
First Quarter
Mar 16
Full
Mar 23
Last Quarter

Hourly Weather History & Observations

Time (CST) Temp. Windchill Dew Point Humidity Pressure Visibility Wind Dir Wind Speed Gust Speed Precip Events Conditions
12:55 AM 6.1 °F -13.3 °F -2.9 °F 67% 29.85 in 10.0 mi SSE 18.4 mph 26.5 mph N/A   Mostly Cloudy
1:55 AM 6.1 °F -12.2 °F -2.9 °F 67% 29.83 in 10.0 mi SSE 16.1 mph 26.5 mph N/A   Overcast
2:55 AM 7.0 °F -11.6 °F -2.9 °F 64% 29.81 in 10.0 mi SSE 17.3 mph 24.2 mph N/A   Overcast
3:55 AM 7.0 °F -9.8 °F -2.0 °F 67% 29.75 in 10.0 mi SSE 13.8 mph 25.3 mph N/A   Mostly Cloudy
4:55 AM 7.0 °F -10.4 °F -2.0 °F 67% 29.77 in 10.0 mi SSE 15.0 mph - N/A   Mostly Cloudy
5:55 AM 9.0 °F -6.6 °F -0.0 °F 67% 29.78 in 10.0 mi South 12.7 mph - N/A   Mostly Cloudy
6:55 AM 10.9 °F -1.8 °F 1.9 °F 67% 29.81 in 10.0 mi South 9.2 mph - N/A   Overcast
7:55 AM 10.9 °F -2.6 °F 3.0 °F 70% 29.83 in 9.0 mi South 10.4 mph - N/A   Overcast
8:55 AM 12.0 °F 1.5 °F 3.9 °F 70% 29.87 in 2.0 mi SSW 6.9 mph - 0.00 in Snow Light Snow
9:02 AM 12.0 °F 0.5 °F 5.0 °F 73% 29.79 in 1.2 mi SW 8.1 mph - 0.00 in Snow Light Snow
9:15 AM 12.0 °F 2.7 °F 6.1 °F 77% 29.80 in 0.8 mi SW 5.8 mph - 0.01 in Snow Light Snow
9:34 AM 12.9 °F 2.6 °F 8.1 °F 81% 29.81 in 2.0 mi WSW 6.9 mph - 0.02 in Snow Light Snow
9:44 AM 14.0 °F 3.9 °F 8.1 °F 77% 29.82 in 3.0 mi West 6.9 mph - 0.02 in Snow Light Snow
9:53 AM 14.0 °F 2.0 °F 8.6 °F 79% 29.82 in 7.0 mi West 9.2 mph - 0.02 in Snow Light Snow
9:55 AM 14.0 °F 3.9 °F 8.1 °F 77% 29.91 in 8.0 mi WSW 6.9 mph - 0.02 in   Overcast
10:55 AM 18.0 °F 2.6 °F 10.0 °F 71% 29.93 in 10.0 mi NW 17.3 mph - N/A   Overcast
11:55 AM 19.9 °F 3.2 °F 9.0 °F 62% 29.95 in 10.0 mi NNW 23.0 mph 32.2 mph N/A   Overcast
12:43 PM 21.0 °F 3.9 °F 10.0 °F 63% 29.90 in 10.0 mi NW 25.3 mph 32.2 mph N/A   Overcast
12:55 PM 19.9 °F 2.2 °F 9.0 °F 62% 29.99 in 9.0 mi NNW 26.5 mph 36.8 mph N/A   Overcast
1:23 PM 18.0 °F -0.8 °F 7.0 °F 62% 29.92 in 10.0 mi NNW 27.6 mph 36.8 mph N/A   Overcast
1:55 PM 17.1 °F -2.4 °F 7.0 °F 65% 30.02 in 10.0 mi NNW 28.8 mph 34.5 mph N/A   Overcast
2:28 PM 18.0 °F -0.8 °F 6.1 °F 60% 29.96 in 10.0 mi NNW 27.6 mph 34.5 mph N/A   Overcast
2:51 PM 17.6 °F -1.6 °F 5.0 °F 58% 29.98 in 10.0 mi North 28.8 mph 34.5 mph N/A   Overcast
2:55 PM 17.1 °F -1.4 °F 5.0 °F 59% 30.07 in 10.0 mi North 25.3 mph 34.5 mph N/A   Mostly Cloudy
3:25 PM 16.0 °F -3.2 °F 5.0 °F 62% 30.01 in 10.0 mi NNW 26.5 mph 38.0 mph N/A   Mostly Cloudy
3:33 PM 16.0 °F -3.2 °F 3.9 °F 59% 30.02 in 10.0 mi NNW 26.5 mph 34.5 mph N/A   Mostly Cloudy
3:41 PM 15.1 °F -4.4 °F 3.9 °F 61% 30.02 in 10.0 mi NNW 26.5 mph 35.7 mph N/A   Mostly Cloudy
3:55 PM 15.1 °F -3.3 °F 3.0 °F 59% 30.12 in 10.0 mi NNW 23.0 mph 32.2 mph N/A   Mostly Cloudy
4:19 PM 14.0 °F -5.8 °F 1.9 °F 59% 30.04 in 10.0 mi NNW 26.5 mph 34.5 mph N/A   Scattered Clouds
4:55 PM 12.9 °F -6.1 °F 1.9 °F 62% 30.15 in 10.0 mi NNW 23.0 mph 28.8 mph N/A   Overcast
5:55 PM 10.9 °F -8.3 °F -0.0 °F 61% 30.18 in 10.0 mi North 21.9 mph - N/A   Overcast
6:55 PM 9.0 °F -11.0 °F -0.9 °F 64% 30.21 in 10.0 mi North 21.9 mph - N/A   Overcast
7:55 PM 8.1 °F -11.2 °F -2.0 °F 64% 30.25 in 10.0 mi NNW 19.6 mph - N/A   Scattered Clouds
8:55 PM 8.1 °F -9.6 °F -0.9 °F 67% 30.29 in 10.0 mi NNW 16.1 mph 24.2 mph N/A   Overcast
9:55 PM 7.0 °F -11.6 °F -2.0 °F 67% 30.33 in 10.0 mi NNW 17.3 mph - N/A   Overcast
10:55 PM 6.1 °F -12.2 °F -2.0 °F 69% 30.36 in 10.0 mi North 16.1 mph - N/A   Overcast
11:55 PM 5.0 °F -15.7 °F -2.9 °F 70% 30.37 in 10.0 mi North 20.7 mph - N/A   Overcast